Temperature
24 24 23 23 24 26 28 28 29 29 30 30 30 30 29 27 25 23 22 22 21 21 21 21 20 20 20 20 20 19 19 19 19 19 19 19 19 19 19 19 19 19 19 19 19 19 19 19 19
24 24 24 25 25 27 27 29 29 29 30 30 30 30 29 27 25 23 22 22 21 20 21 21 20 20 20 20 20 19 19 19 19 19 19 19 19 19 19 19 19 19 19 19 19 18 18 19 19
25 25 25 26 27 27 28 29 30 30 30 30 30 28 27 27 25 23 22 22 20 20 20 21 20 20 20 20 20 19 19 19 19 19 19 19 19 19 19 19 19 19 18 18 18 18 18 18 18
25 26 27 27 28 29 30 30 30 30 30 30 29 28 26 26 25 23 22 22 21 20 20 21 20 20 20 20 20 19 19 19 19 19 19 19 19 19 19 19 19 18 18 18 18 18 18 18 18
26 27 27 27 29 30 31 31 31 30 30 30 29 28 26 25 24 23 22 22 21 20 20 21 20 20 20 20 19 19 19 19 19 19 19 19 19 19 19 19 19 19 18 18 18 18 18 18 18
27 28 25 25 29 30 31 31 31 31 31 30 30 28 26 24 24 23 23 22 21 20 20 20 20 20 20 20 19 19 19 19 19 19 19 19 19 19 19 18 19 19 19 18 18 18 18 18 18
27 27 26 27 28 29 31 31 31 31 30 30 30 28 26 24 23 23 23 23 22 21 20 20 20 20 20 20 19 19 19 19 19 19 19 19 19 18 19 19 19 19 19 18 18 18 18 18 18
26 27 28 28 28 28 30 31 31 31 30 30 30 29 26 24 23 23 23 23 22 21 20 20 19 20 20 20 19 19 19 19 19 19 18 18 18 18 18 18 19 19 19 19 18 18 18 18 18
27 27 26 27 27 27 30 30 30 30 30 30 29 28 26 24 24 23 23 23 22 22 21 20 19 19 19 19 19 19 19 19 19 18 18 18 18 18 18 18 18 19 19 19 19 19 19 18 18
28 26 26 28 29 28 30 30 30 30 30 29 28 27 26 25 24 24 23 23 23 22 22 21 20 20 19 19 19 19 19 19 19 18 18 18 18 17 17 17 18 19 19 19 19 19 19 19 18
29 28 28 29 29 29 29 29 30 29 28 28 28 27 26 25 25 24 24 24 23 23 22 22 21 20 20 19 19 19 19 18 18 18 18 18 18 18 18 18 18 19 19 18 19 19 19 19 18
29 29 29 29 28 29 29 29 29 28 28 28 28 28 27 26 26 25 25 25 24 23 23 23 22 21 20 20 19 19 19 19 18 18 18 18 18 18 18 18 18 18 18 18 18 18 19 19 19
29 29 29 29 28 28 29 29 29 28 28 28 28 28 28 27 27 26 26 26 25 24 23 23 22 22 21 20 20 19 19 19 19 19 18 18 18 18 19 19 18 18 18 18 18 19 19 19 19
29 28 28 29 29 29 29 29 29 27 27 28 28 28 27 27 27 26 26 26 25 24 24 23 23 22 22 21 20 20 19 19 19 19 19 19 19 19 19 19 19 19 19 19 19 19 19 19 19
28 28 29 29 29 29 29 28 28 27 27 27 27 27 27 26 26 26 26 26 25 25 24 24 23 22 22 21 21 20 20 20 19 19 19 19 19 19 19 19 19 19 19 19 19 19 19 19 18
29 28 28 29 29 29 28 26 26 26 27 26 26 26 26 26 25 25 25 25 25 25 25 24 23 23 22 22 21 21 20 20 20 19 19 20 19 19 19 19 19 19 19 19 19 19 18 18 18
28 27 27 28 29 29 28 26 26 26 26 26 26 26 25 25 24 24 24 24 24 24 24 24 23 22 22 22 21 21 21 20 20 20 19 20 20 19 19 19 19 19 19 19 19 18 18 18 18
26 26 27 27 27 27 26 26 26 26 26 26 25 25 25 24 23 23 22 22 23 23 23 24 23 22 22 22 21 21 21 20 20 20 19 19 19 19 19 19 19 19 18 18 18 18 18 18 18
27 27 27 27 28 27 26 26 26 26 25 25 25 25 24 23 23 22 21 22 22 22 22 23 23 22 22 21 21 21 20 20 20 19 19 19 19 19 19 18 18 18 18 18 18 18 18 18 18
27 26 26 26 27 26 25 25 26 25 24 23 23 23 22 22 21 21 20 20 20 20 21 21 22 22 22 21 21 20 20 20 19 19 19 19 19 18 18 18 18 18 18 18 17 17 17 17 17
25 25 24 24 25 25 25 24 25 25 24 22 21 21 21 20 20 20 19 19 19 19 19 20 20 21 22 21 21 20 20 19 19 19 19 18 18 18 18 18 17 17 17 17 17 17 17 17 17
23 24 24 24 23 23 24 23 23 22 20 19 19 19 19 19 19 18 18 17 17 17 18 19 20 20 21 21 21 20 20 19 19 19 18 18 18 18 18 17 17 17 17 17 17 17 17 17 17
23 24 23 23 23 23 23 23 22 19 17 17 17 17 17 18 18 17 17 16 16 16 17 18 18 19 20 20 20 20 19 19 18 18 18 18 18 18 17 17 17 17 17 17 17 17 16 16 16
24 24 24 24 23 22 23 22 18 16 16 16 16 16 16 16 16 16 16 15 16 16 16 17 17 18 19 19 19 19 19 18 18 17 17 17 17 17 17 16 16 16 17 17 17 16 16 16 16
23 22 21 22 22 21 22 19 15 15 15 15 15 15 15 15 15 15 15 15 15 15 15 16 16 16 17 18 18 18 17 17 17 16 16 16 16 16 16 16 16 16 16 16 16 16 16 16 16
21 21 19 18 19 20 20 17 14 14 14 14 14 14 14 14 14 14 14 14 14 14 14 15 15 15 16 16 16 16 16 16 16 16 16 16 15 15 15 15 16 16 16 16 16 16 16 16 16
20 19 20 19 19 19 18 16 15 14 14 13 13 13 13 13 13 13 13 13 13 13 14 14 14 14 15 15 15 15 15 15 15 15 15 15 15 15 15 15 16 16 16 16 16 16 16 16 16
20 19 19 18 17 17 17 14 12 12 12 13 13 12 12 12 12 12 12 13 13 13 13 13 14 14 14 14 14 14 14 14 14 14 14 14 14 15 15 15 16 16 16 16 16 16 16 15 15
18 18 18 18 17 15 14 13 12 11 11 11 12 12 12 12 12 12 12 12 13 13 13 13 13 13 13 14 14 14 14 14 14 14 14 15 15 15 15 16 16 16 16 16 16 16 16 16 15
18 17 17 16 15 15 13 12 12 12 11 12 12 11 11 11 11 12 12 12 12 13 13 13 13 13 13 13 14 14 14 14 14 14 15 15 15 16 16 16 16 16 16 16 16 16 16 16 15
Wind_Speed
15 12 8 3 3 1 10 8 9 9 11 11 9 7 10 14 9 7 6 12 19 18 18 16 16 15 13 12 12 11 12 12 12 12 12 12 12 11 11 10 10 9 8 8 7 6 6 6 5
13 8 4 3 2 6 9 8 10 11 9 7 9 12 13 14 13 10 8 15 19 18 17 16 16 14 13 12 11 11 11 11 11 11 11 11 11 11 10 10 9 9 8 8 7 6 6 5 5
12 10 4 3 3 8 8 8 9 9 8 8 7 14 12 7 10 10 11 17 18 17 16 18 16 14 13 12 11 11 11 11 11 11 11 10 10 10 10 10 9 9 9 9 8 7 6 5 5
8 5 4 1 8 8 7 8 6 6 7 9 9 10 11 9 8 13 14 16 17 16 17 17 15 14 13 12 11 11 11 11 11 10 10 10 10 9 9 9 9 9 9 9 8 7 6 5 4
6 4 3 2 7 8 8 8 6 6 9 9 12 15 11 12 15 15 13 16 16 16 17 17 15 14 12 11 11 11 11 11 10 10 10 9 9 9 9 9 9 9 9 8 8 7 6 6 6
4 3 2 1 5 6 6 6 5 7 8 8 10 14 9 11 12 12 12 13 15 16 16 16 15 13 12 11 11 11 11 11 10 10 9 9 8 9 9 9 8 8 8 7 7 6 6 6 6
5 4 2 2 4 4 6 5 6 7 11 11 7 12 10 12 11 10 10 10 14 16 15 15 14 13 12 11 11 11 11 10 10 10 9 9 8 8 9 9 8 7 7 6 5 4 4 4 4
4 5 4 2 5 4 4 4 6 7 8 7 9 10 10 13 12 10 9 9 12 14 15 14 15 15 13 12 11 11 10 10 10 10 10 9 8 8 9 10 8 7 6 4 3 3 2 3 3
4 4 5 5 5 2 3 4 4 2 4 7 12 14 14 15 13 11 8 8 9 11 12 13 13 13 14 15 14 12 11 10 10 10 10 10 10 11 10 10 11 7 6 4 3 3 4 4 6
4 2 4 4 6 4 4 4 4 3 5 6 9 13 14 13 13 11 10 10 11 11 12 12 12 11 11 11 14 12 12 12 11 11 12 11 11 9 10 14 11 8 7 6 6 7 7 8 9
4 2 2 3 6 5 4 4 4 4 5 5 5 9 12 11 12 12 11 11 11 11 10 12 12 11 9 7 10 8 9 10 12 11 13 12 9 9 12 10 9 9 9 9 9 10 10 12 10
4 3 4 4 4 4 5 4 4 4 4 5 5 4 10 10 10 10 11 10 10 10 10 10 12 11 11 9 7 7 6 6 7 11 13 10 4 5 8 8 11 11 10 9 9 9 11 10 9
6 4 3 3 3 5 5 5 4 2 4 5 4 2 5 8 8 8 8 10 11 10 10 10 10 11 10 9 7 8 6 7 9 10 12 11 4 5 3 4 8 8 9 6 4 5 2 2 5
4 5 6 7 7 6 6 7 5 2 2 3 4 3 2 1 3 5 5 6 9 11 11 9 9 9 10 9 8 7 6 7 7 8 10 12 7 3 3 3 3 3 6 7 5 2 3 1 2
6 9 10 9 8 4 4 7 2 5 2 3 4 5 5 3 2 0 0 0 2 7 9 11 10 9 10 10 9 7 6 8 5 7 10 11 10 6 4 3 5 3 5 6 3 1 3 2 3
11 10 10 7 6 3 4 4 5 3 2 3 4 5 5 3 4 7 8 6 4 1 4 8 10 9 9 8 8 6 6 6 5 8 7 8 10 9 5 2 3 3 4 2 3 2 1 1 2
7 7 7 3 3 3 5 2 3 2 1 1 2 3 3 5 8 9 9 8 8 6 3 5 8 8 7 8 6 5 5 6 4 6 6 4 6 8 6 3 1 2 2 2 2 2 1 0 1
11 10 10 7 3 4 7 4 2 1 0 2 3 3 4 7 9 10 10 10 9 9 7 4 6 8 7 6 6 5 4 5 5 3 4 4 2 4 5 3 2 2 3 1 1 1 1 1 1
12 13 14 11 5 5 8 9 4 2 2 1 2 5 7 9 10 10 10 10 10 9 9 8 3 6 6 6 6 6 5 4 4 4 5 5 1 2 4 3 2 2 3 1 1 0 1 1 1
12 13 13 10 11 10 11 12 8 1 3 6 7 9 10 10 10 10 11 11 12 11 10 10 7 4 6 6 7 6 6 5 5 4 4 5 3 1 3 4 3 2 1 1 2 1 1 1 1
13 12 13 13 14 14 15 12 8 2 6 8 9 10 10 10 10 11 11 11 12 12 11 11 10 7 5 6 6 6 5 5 4 4 4 4 4 3 2 2 3 3 3 3 4 4 4 4 3
12 13 14 15 15 11 11 10 5 6 12 13 13 12 12 11 11 11 11 12 12 12 12 12 10 8 6 4 7 8 7 6 5 5 5 5 4 3 3 2 0 2 3 4 5 6 5 5 5
11 15 18 18 15 15 13 11 3 12 14 16 16 15 15 14 13 13 12 11 12 13 12 11 10 8 6 2 4 7 6 5 5 5 7 6 5 4 3 1 1 3 3 5 6 5 5 6 6
13 16 18 15 11 11 8 7 5 10 14 16 16 16 16 16 15 14 13 12 11 11 11 11 9 8 8 6 3 5 7 8 7 6 5 4 4 3 2 1 1 3 4 5 5 5 6 6 7
15 13 7 5 3 3 8 5 7 13 16 16 16 17 17 16 15 14 13 12 11 11 10 10 10 9 9 8 7 6 7 8 7 6 5 4 3 2 1 2 2 3 4 4 3 3 4 6 6
13 12 7 6 7 9 7 5 7 16 17 17 17 17 17 16 14 13 12 11 10 10 10 9 9 9 9 8 8 7 8 6 5 5 4 3 2 2 3 3 3 3 3 3 2 1 3 3 4
11 11 9 8 10 8 3 5 7 19 21 21 20 19 18 16 15 13 13 12 10 10 10 9 8 8 8 8 8 8 7 7 6 5 3 2 2 3 3 2 3 4 3 2 2 2 2 1 1
10 10 6 6 6 5 5 6 10 19 21 22 20 19 17 15 14 13 12 11 10 9 8 9 9 9 8 7 6 6 5 4 4 3 2 1 1 1 2 3 5 5 5 4 2 1 0 1 1
11 11 8 5 4 4 5 4 9 13 16 18 18 16 15 15 15 13 12 12 11 10 9 9 9 9 8 7 6 6 5 3 2 2 1 1 2 3 4 5 4 4 5 5 4 3 3 2 2
10 10 8 5 5 4 2 3 8 10 13 14 14 15 15 15 14 13 13 13 12 11 10 10 10 9 9 7 6 5 5 4 3 1 1 3 3 4 4 4 3 2 2 3 4 4 4 3 3
Wind_Direction
285 259 241 261 268 110 70 69 65 47 49 44 32 33 55 58 53 84 144 144 124 125 132 138 136 135 133 130 127 124 121 118 116 112 108 104 102 99 95 93 92 92 94 95 94 95 97 96 96
290 286 260 246 274 77 76 68 64 54 41 31 36 33 53 65 82 106 146 124 126 128 139 140 140 139 138 137 135 132 128 124 120 117 113 110 106 102 97 93 90 88 90 95 95 93 93 95 97
268 271 260 249 70 76 83 79 75 67 47 32 51 64 50 52 92 122 129 129 130 133 137 134 144 145 145 144 143 139 135 132 128 124 120 116 112 107 102 95 90 87 86 87 89 91 89 92 100
279 269 242 277 76 73 82 93 76 77 72 48 54 69 67 50 86 119 136 140 131 132 129 138 146 148 150 151 151 148 145 142 137 132 128 124 119 114 110 103 96 89 85 83 82 85 86 90 98
258 264 312 41 87 80 71 77 76 69 64 54 71 82 79 76 97 121 147 138 135 134 133 144 149 152 155 158 158 156 154 151 147 142 138 134 129 123 117 112 105 98 91 87 83 83 86 88 93
288 278 13 357 78 73 84 90 74 57 61 53 76 91 93 107 115 134 144 142 144 138 139 144 153 157 160 163 164 163 162 160 156 150 146 142 137 130 126 119 113 105 99 92 85 81 87 91 96
313 303 223 163 86 72 56 39 51 54 56 43 41 96 114 116 121 136 141 149 143 142 142 147 159 163 167 170 171 170 169 167 164 159 154 150 147 142 138 132 125 118 111 105 96 88 91 98 105
311 293 306 57 72 48 38 31 47 38 64 52 40 72 117 125 139 143 147 146 145 149 150 158 165 169 172 175 178 177 175 174 171 167 163 161 161 161 157 153 140 136 130 124 120 125 134 143 157
275 286 349 14 66 58 18 19 49 32 68 68 69 72 104 129 142 145 147 154 161 161 159 164 169 171 173 173 173 175 179 179 174 175 174 175 185 182 180 163 148 153 154 162 181 197 207 208 208
248 316 15 350 39 26 10 5 354 17 46 63 89 102 118 141 149 155 166 176 173 172 170 168 169 168 171 171 158 176 180 177 189 185 182 201 213 192 163 144 155 165 176 192 214 225 233 230 216
277 321 348 10 35 357 336 344 341 8 37 21 69 123 140 155 163 170 180 184 175 177 176 169 170 169 164 154 157 172 172 176 195 191 189 208 208 161 142 157 160 180 193 207 212 223 231 223 214
294 323 332 351 25 322 315 328 338 26 41 357 17 122 154 171 178 184 187 179 168 174 175 175 168 168 168 166 157 161 169 180 188 194 197 200 205 200 171 170 174 185 198 208 198 218 222 223 192
265 274 275 293 289 281 290 289 290 7 18 346 347 323 168 183 183 188 191 171 169 166 173 184 173 174 174 163 157 173 172 180 189 191 196 192 189 213 171 181 167 186 180 172 240 245 162 47 59
315 311 283 268 261 261 266 271 255 79 10 346 349 341 18 124 184 178 199 183 173 165 179 179 180 175 166 162 174 175 171 177 182 176 197 190 185 205 152 206 144 200 164 169 221 210 113 87 76
277 266 261 244 243 254 290 280 284 83 14 5 2 15 25 24 329 277 42 121 160 169 182 171 181 185 180 176 179 173 170 174 173 174 203 191 178 188 165 205 154 196 177 182 220 127 111 126 133
254 254 258 240 209 208 245 274 83 73 6 26 24 23 11 353 1 25 22 5 356 232 186 170 180 190 184 172 174 171 173 165 164 167 203 200 177 181 165 172 149 184 175 155 114 50 94 147 179
266 279 296 293 193 268 258 285 133 154 160 1 30 21 10 4 27 24 14 2 344 325 271 177 174 189 188 171 172 169 170 158 156 162 172 208 184 176 152 145 142 158 114 109 149 170 162 207 150
335 327 315 315 341 326 299 290 168 173 172 25 21 357 34 28 31 23 8 359 338 324 309 258 183 184 189 170 175 173 178 161 150 144 147 176 195 148 130 130 158 122 112 83 19 131 94 29 1
313 303 300 304 335 329 305 297 270 187 156 92 23 21 29 25 18 27 6 355 343 333 324 308 245 193 191 175 179 173 171 161 143 138 135 141 126 92 111 125 121 87 108 134 275 310 163 247 285
311 306 308 319 341 330 304 290 288 160 95 59 29 21 23 20 7 16 8 359 352 341 336 324 304 247 203 186 178 179 166 157 150 140 133 130 139 109 110 124 127 122 127 188 263 287 166 256 253
325 335 337 326 319 301 288 279 278 201 89 67 35 18 16 11 5 5 3 360 352 346 339 324 315 292 245 199 176 168 156 150 144 138 120 96 91 73 73 110 143 170 172 202 234 241 217 219 246
319 337 325 307 299 291 291 289 324 36 49 32 19 16 4 6 8 5 2 358 352 347 340 329 321 310 287 213 179 172 168 167 166 151 128 107 84 69 53 23 316 206 191 203 224 230 221 211 227
316 314 298 285 277 277 280 278 360 36 26 15 5 5 357 1 2 360 1 0 356 353 348 341 333 334 334 294 185 170 159 157 143 133 128 122 108 83 62 348 295 265 233 218 219 233 222 217 222
325 313 294 268 253 260 292 293 45 22 10 4 359 358 354 356 355 357 0 1 360 359 357 356 359 13 16 22 66 129 137 131 129 127 126 116 109 98 88 306 281 272 259 245 225 217 223 222 225
344 339 329 326 296 314 10 36 52 17 10 3 354 353 352 355 355 355 357 359 4 5 5 9 19 28 31 37 46 77 114 125 130 130 130 126 118 113 161 217 230 253 261 261 237 223 225 221 223
346 355 351 325 324 326 357 61 57 16 3 357 357 355 354 353 354 358 2 4 9 11 13 20 27 33 39 51 56 69 90 99 107 111 115 121 138 172 204 215 222 230 243 262 252 248 244 232 222
353 357 332 306 303 302 28 63 25 4 358 355 355 354 354 353 356 4 7 7 12 17 18 24 36 44 49 57 62 69 79 88 99 106 111 132 181 182 188 211 216 215 212 229 234 231 254 253 277
13 354 345 348 343 334 13 35 357 349 349 348 349 351 352 356 2 8 10 11 16 19 22 31 42 48 50 58 66 75 76 87 101 106 115 166 202 175 197 229 224 202 189 190 176 197 270 283 251
18 16 1 345 9 353 351 22 358 343 343 342 346 354 3 8 12 15 16 18 22 25 31 35 36 39 43 49 55 59 60 61 63 85 116 243 252 246 241 237 227 200 179 179 169 191 184 210 260
39 21 11 11 15 15 10 14 352 340 337 345 357 5 9 15 19 21 21 22 25 29 32 34 32 32 31 34 38 41 39 34 22 7 304 271 262 262 261 249 235 163 157 181 169 184 178 189 219
Height
1491 1491 1492 1494 1495 1495 1497 1492 1487 1487 1486 1488 1487 1486 1488 1494 1502 1513 1512 1513 1513 1514 1517 1519 1521 1524 1526 1529 1531 1532 1534 1536 1537 1538 1539 1540 1541 1542 1543 1545 1545 1546 1547 1548 1549 1550 1551 1552 1553
1492 1494 1495 1495 1498 1505 1503 1492 1491 1490 1490 1490 1489 1489 1490 1497 1503 1508 1511 1514 1514 1515 1518 1520 1523 1525 1527 1529 1531 1533 1535 1536 1538 1539 1540 1541 1542 1543 1544 1545 1546 1547 1548 1549 1550 1551 1551 1552 1553
1493 1494 1495 1493 1495 1501 1500 1491 1490 1491 1491 1491 1491 1493 1497 1501 1504 1508 1512 1514 1516 1517 1519 1521 1524 1526 1528 1530 1532 1534 1535 1537 1538 1540 1541 1542 1543 1544 1545 1546 1547 1548 1549 1550 1550 1551 1552 1552 1553
1496 1496 1493 1493 1497 1491 1489 1489 1489 1490 1491 1491 1492 1496 1502 1505 1506 1509 1512 1515 1517 1519 1520 1523 1525 1527 1529 1531 1533 1534 1536 1537 1539 1540 1542 1543 1544 1545 1546 1547 1547 1548 1549 1550 1551 1551 1552 1553 1554
1497 1495 1495 1498 1494 1488 1487 1488 1490 1490 1491 1492 1494 1498 1504 1507 1508 1510 1513 1516 1518 1520 1521 1524 1526 1528 1530 1531 1533 1535 1536 1538 1539 1541 1542 1543 1544 1545 1546 1547 1548 1548 1549 1550 1551 1552 1553 1553 1554
1498 1493 1507 1510 1496 1489 1487 1489 1490 1490 1491 1492 1493 1498 1506 1509 1510 1512 1515 1517 1519 1521 1522 1524 1526 1528 1530 1532 1533 1535 1537 1538 1540 1541 1542 1543 1544 1545 1546 1547 1548 1549 1550 1551 1552 1552 1553 1554 1555
1500 1497 1504 1502 1497 1493 1490 1490 1490 1491 1493 1495 1495 1498 1505 1509 1511 1514 1516 1518 1520 1522 1523 1524 1527 1529 1530 1532 1533 1535 1537 1538 1540 1541 1542 1544 1545 1545 1546 1547 1548 1549 1550 1551 1552 1553 1554 1555 1556
1500 1497 1497 1496 1499 1499 1492 1491 1493 1493 1495 1497 1497 1499 1505 1509 1512 1514 1517 1519 1521 1523 1524 1525 1527 1529 1530 1532 1534 1535 1537 1538 1540 1541 1543 1544 1545 1546 1547 1547 1548 1549 1550 1551 1552 1553 1554 1555 1556
1501 1501 1507 1501 1500 1500 1494 1493 1495 1496 1496 1498 1500 1503 1506 1509 1512 1515 1517 1520 1522 1523 1524 1526 1528 1530 1531 1532 1534 1535 1537 1538 1540 1541 1543 1544 1545 1546 1547 1547 1549 1550 1551 1552 1553 1554 1555 1556 1557
1499 1505 1506 1498 1495 1497 1496 1496 1496 1496 1497 1499 1501 1505 1507 1510 1512 1515 1517 1519 1521 1523 1524 1526 1528 1530 1532 1533 1533 1535 1536 1538 1539 1541 1543 1544 1546 1547 1548 1548 1549 1550 1551 1552 1553 1554 1555 1556 1557
1497 1499 1499 1496 1497 1498 1497 1497 1498 1498 1501 1502 1502 1504 1507 1510 1512 1513 1515 1517 1519 1521 1523 1525 1527 1529 1531 1532 1533 1535 1536 1538 1539 1541 1543 1544 1546 1548 1548 1549 1550 1550 1551 1552 1553 1555 1556 1556 1557
1498 1497 1498 1497 1499 1499 1499 1499 1499 1500 1503 1503 1503 1504 1506 1508 1510 1512 1513 1515 1517 1520 1522 1524 1526 1527 1529 1531 1532 1534 1535 1537 1539 1540 1543 1544 1546 1548 1549 1549 1549 1550 1551 1552 1554 1555 1556 1557 1559
1498 1498 1498 1499 1500 1500 1499 1499 1500 1501 1503 1503 1503 1504 1504 1506 1508 1510 1512 1513 1515 1518 1520 1523 1525 1526 1528 1530 1531 1533 1534 1536 1538 1540 1542 1544 1546 1547 1549 1550 1550 1551 1552 1553 1554 1555 1558 1559 1559
1498 1498 1498 1498 1498 1498 1498 1498 1498 1500 1503 1503 1503 1503 1504 1505 1507 1509 1510 1512 1513 1515 1518 1521 1523 1525 1527 1528 1530 1532 1533 1535 1537 1539 1541 1543 1545 1547 1548 1550 1550 1552 1553 1554 1555 1556 1557 1558 1559
1498 1498 1495 1494 1494 1495 1497 1499 1498 1501 1503 1503 1504 1503 1504 1505 1506 1507 1509 1510 1512 1514 1516 1518 1520 1523 1525 1526 1528 1530 1532 1533 1535 1537 1539 1542 1543 1545 1547 1549 1549 1551 1553 1554 1555 1556 1557 1558 1558
1494 1495 1498 1490 1491 1493 1500 1505 1501 1501 1502 1503 1504 1504 1505 1506 1506 1507 1508 1509 1511 1513 1514 1516 1517 1520 1522 1524 1526 1528 1530 1531 1533 1535 1537 1540 1542 1544 1545 1547 1548 1550 1551 1553 1554 1555 1556 1557 1558
1495 1502 1500 1494 1490 1492 1496 1502 1501 1502 1502 1504 1504 1505 1506 1506 1506 1507 1508 1509 1510 1511 1512 1513 1515 1517 1519 1521 1524 1526 1527 1529 1531 1533 1535 1537 1540 1541 1543 1545 1547 1548 1550 1551 1553 1554 1555 1556 1557
1508 1505 1502 1500 1494 1496 1499 1500 1500 1501 1502 1503 1505 1506 1506 1507 1508 1508 1508 1508 1509 1509 1510 1512 1512 1513 1516 1518 1519 1522 1524 1526 1528 1530 1532 1535 1537 1539 1540 1542 1544 1546 1547 1549 1551 1552 1554 1555 1556
1504 1505 1504 1498 1494 1498 1501 1501 1499 1500 1502 1503 1505 1506 1507 1509 1509 1509 1509 1509 1508 1508 1508 1509 1509 1509 1512 1513 1515 1517 1519 1521 1524 1526 1528 1531 1534 1536 1537 1539 1541 1543 1544 1546 1548 1550 1551 1553 1554
1504 1506 1504 1499 1497 1500 1502 1501 1498 1500 1502 1505 1508 1509 1509 1510 1511 1510 1509 1508 1507 1506 1505 1505 1505 1506 1507 1508 1510 1512 1514 1516 1519 1522 1523 1526 1530 1533 1534 1536 1538 1540 1542 1544 1545 1547 1548 1550 1552
1511 1511 1511 1511 1505 1502 1503 1504 1501 1499 1504 1508 1511 1512 1513 1513 1512 1511 1510 1508 1506 1504 1502 1501 1501 1502 1502 1503 1505 1507 1508 1510 1514 1517 1519 1521 1525 1528 1531 1533 1535 1536 1538 1540 1542 1544 1545 1546 1548
1519 1511 1512 1511 1513 1512 1506 1515 1507 1504 1510 1514 1516 1516 1517 1514 1512 1511 1510 1507 1505 1502 1500 1498 1497 1497 1497 1498 1499 1501 1502 1504 1506 1511 1514 1517 1520 1523 1526 1529 1531 1533 1535 1536 1538 1540 1541 1543 1544
1517 1513 1510 1508 1509 1511 1507 1512 1515 1516 1523 1524 1524 1521 1519 1516 1513 1512 1509 1506 1503 1500 1497 1495 1493 1492 1492 1493 1494 1496 1497 1499 1503 1507 1509 1512 1516 1519 1522 1524 1527 1530 1532 1533 1534 1536 1537 1539 1540
1514 1510 1503 1497 1503 1516 1509 1513 1531 1533 1535 1531 1528 1524 1522 1518 1514 1511 1508 1505 1501 1498 1495 1492 1490 1489 1488 1489 1490 1492 1494 1496 1498 1501 1505 1509 1511 1514 1518 1521 1523 1526 1528 1529 1530 1532 1533 1534 1536
1518 1520 1521 1517 1516 1517 1511 1522 1546 1542 1539 1536 1533 1527 1523 1518 1515 1511 1507 1504 1500 1497 1494 1491 1489 1488 1487 1487 1488 1490 1491 1493 1496 1499 1503 1505 1507 1510 1514 1517 1520 1522 1525 1526 1527 1528 1530 1531 1532
1525 1525 1538 1543 1535 1526 1519 1535 1548 1546 1543 1539 1533 1528 1523 1519 1515 1511 1507 1504 1501 1497 1495 1492 1490 1488 1487 1487 1488 1490 1491 1493 1495 1498 1501 1504 1505 1508 1511 1514 1517 1519 1521 1523 1525 1526 1527 1528 1529
1533 1533 1529 1533 1531 1530 1532 1542 1543 1545 1543 1539 1533 1529 1524 1519 1515 1511 1507 1504 1501 1498 1496 1494 1492 1490 1489 1489 1490 1491 1492 1494 1496 1498 1500 1503 1505 1507 1510 1513 1515 1518 1519 1521 1523 1524 1524 1525 1526
1537 1536 1534 1540 1548 1548 1545 1555 1562 1554 1549 1542 1536 1532 1526 1520 1515 1511 1507 1504 1502 1500 1498 1496 1495 1494 1493 1492 1493 1494 1494 1496 1498 1499 1501 1504 1506 1509 1510 1512 1514 1517 1518 1519 1521 1522 1522 1523 1523
1544 1544 1542 1541 1545 1557 1563 1569 1565 1561 1554 1548 1540 1534 1527 1522 1517 1513 1510 1506 1504 1502 1500 1499 1498 1497 1497 1497 1497 1497 1498 1499 1501 1502 1504 1506 1508 1509 1511 1512 1514 1516 1517 1518 1519 1520 1520 1521 1521
1547 1548 1548 1554 1557 1558 1566 1574 1564 1562 1556 1549 1542 1536 1531 1525 1521 1517 1513 1510 1507 1505 1503 1502 1501 1501 1501 1501 1501 1502 1502 1503 1504 1505 1506 1508 1509 1510 1511 1512 1514 1515 1516 1517 1518 1519 1519 1520 1520